STARLINK-34415

Last updated on Sat Jul 19 2025 00:02:07 GMT+0000 (Coordinated Universal Time)

1 64618U 25137AA 25199.58335648 -.01536508 00000+0 -16377-1 0 9995 2 64618 53.1599 355.2240 0000897 101.1683 308.0091 15.66251799 4718
UTC large
Height (km)
Speed (km/s)
/
Latitude / Longitude
Inclination (degrees)
Orbital Period (minutes)
Azimuth
Elevation
Range (km)
Doppler Factor

Next 0 passes for location: London (51.5072 / 0.1276)

Sorry there are no passes over London.